Location: Beverley
(50.2667°N, 107.9667°W)
Time: 08:27:36
(UTC+00:00)

EO-79 - Pass Details

Date: 06 July 2022
Orbit: 588 x 603 km, 98.0° (Epoch: 09 August)

Event Time Altitude Azimuth Distance (km) Brightness Sun altitude
Rises 09:48:41 0° 7° (N) 2,861 ? -9.7°
Reaches altitude 10° 09:50:59 10° 359° (N) 1,955 ? -9.5°
Maximum altitude 09:54:52 36° 293° (WNW) 968 ? -9.1°
Enters shadow 09:58:33 11° 228° (SW) 1,878 ? -8.8°
